Wind_Speed
24 24 23 20 19 18 16 15 15 15 16 17 16 14 15 12 12 13 14 14 12 12 12 12 11 11 11 11 11 11 12 13 14 14 14 14 14 14 14 14 14 14 14 13
25 24 22 21 21 21 21 19 17 16 18 18 16 15 16 14 13 14 15 14 14 13 13 13 13 12 11 11 12 12 12 13 13 14 14 14 14 14 14 14 14 14 14 13
24 21 23 24 23 23 22 20 18 18 18 19 18 16 18 17 15 14 14 15 15 14 13 13 12 12 12 11 11 12 12 13 13 13 12 13 14 14 14 14 13 13 13 13
24 23 24 25 24 24 22 20 20 20 20 18 17 16 16 16 16 15 15 16 15 14 13 13 13 13 12 12 12 12 12 12 12 11 11 12 13 14 14 13 12 12 13 13
24 25 26 26 25 24 22 21 22 21 20 19 17 16 17 18 18 16 15 15 15 15 14 14 13 13 13 12 12 12 12 12 12 12 12 12 13 13 12 12 12 12 12 12
24 25 26 25 24 24 23 23 23 23 21 22 19 16 18 19 19 16 14 14 16 16 16 15 13 12 12 13 13 12 13 13 12 12 13 13 13 12 12 11 11 11 12 12
26 26 26 26 26 26 26 25 23 22 23 21 18 18 19 18 18 17 15 16 17 17 17 16 14 12 12 12 13 13 12 12 12 13 13 13 13 13 12 12 12 11 12 12
25 25 26 26 27 27 27 26 23 20 18 18 19 21 20 19 19 18 18 18 18 17 16 16 15 13 12 12 12 12 12 13 13 13 13 13 13 14 13 12 12 11 12 12
22 22 24 26 26 27 27 26 22 19 17 17 17 18 18 20 20 19 18 18 19 18 17 16 15 13 13 12 12 12 12 13 14 13 13 14 14 14 14 13 13 12 12 12
21 21 23 25 26 27 26 25 26 25 22 19 18 18 18 19 18 17 18 18 19 18 16 16 15 14 14 13 13 13 12 13 13 14 14 13 13 14 14 14 14 13 12 12
24 21 21 24 27 27 28 28 28 25 22 18 17 18 18 18 15 16 18 18 17 17 17 16 16 16 15 14 14 14 14 14 14 14 14 14 13 14 14 13 13 14 13 12
27 24 23 24 24 24 27 28 28 28 25 22 21 19 18 18 15 15 17 18 18 17 17 16 16 14 15 15 15 15 14 14 14 14 14 14 13 13 13 13 14 14 13 12
28 28 26 25 25 26 28 28 27 28 26 24 22 21 20 18 15 15 18 18 18 17 16 16 16 15 16 16 15 15 15 14 14 14 14 14 14 13 13 14 14 14 13 13
29 30 29 26 25 26 27 28 28 28 27 25 23 23 23 18 15 15 18 18 18 18 17 16 16 16 16 16 16 16 15 15 14 14 14 14 14 14 14 15 15 14 13 13
31 31 31 29 27 27 27 27 28 29 28 25 23 26 25 22 19 17 17 18 19 19 18 17 17 16 16 16 16 16 16 16 15 15 15 15 15 15 15 15 15 15 14 14
32 32 32 31 28 27 28 29 28 29 28 26 25 27 25 23 21 21 20 20 20 19 18 18 18 17 16 16 16 15 15 15 15 16 16 16 16 16 15 16 16 15 15 15
32 34 33 31 29 27 27 27 27 28 27 28 28 28 25 24 22 21 22 21 21 20 19 18 17 17 17 16 16 16 16 16 16 16 16 16 16 16 15 16 16 16 16 15
32 33 33 31 30 30 27 25 26 27 28 29 30 29 29 26 24 22 22 21 21 20 19 19 18 17 17 17 17 17 17 17 17 17 18 17 17 17 17 18 18 18 17 16
31 32 31 31 31 30 27 25 26 29 30 30 32 32 30 27 25 25 24 21 20 19 19 18 17 17 16 17 17 17 17 17 18 17 17 17 17 18 18 19 19 19 18 18
31 32 32 33 32 31 31 30 29 30 31 32 32 32 30 28 27 25 21 20 19 19 19 18 17 17 17 17 17 17 18 17 18 17 17 17 17 18 18 19 19 18 18 18
32 32 33 33 33 32 31 30 30 32 32 31 30 30 29 28 26 24 21 20 19 18 18 18 18 18 17 17 17 18 18 17 17 17 18 18 18 17 17 17 18 18 19 19
32 31 33 32 32 33 30 31 32 33 31 31 29 29 30 28 26 25 22 21 20 19 18 18 18 18 18 18 18 18 17 17 18 18 18 18 18 19 18 18 19 19 21 21
34 35 34 34 33 34 31 31 31 30 30 30 28 28 28 28 26 24 23 23 22 21 20 19 19 19 18 18 17 17 18 18 18 17 17 18 18 18 19 19 19 20 20 20
35 35 35 34 32 31 32 32 30 29 29 27 27 27 28 27 25 23 22 23 22 21 21 20 20 20 19 19 19 19 19 19 19 18 18 18 18 18 18 19 19 19 20 20
34 35 35 33 34 33 32 31 29 29 28 27 27 26 26 25 24 24 23 22 22 22 22 21 21 21 21 20 20 20 20 20 20 20 20 20 20 20 20 20 20 21 21 21
33 33 34 33 32 32 31 29 29 27 28 27 27 27 26 25 24 23 22 22 22 22 22 22 22 22 22 21 21 20 20 20 20 19 20 20 21 21 22 22 21 21 21 21
Wind_Direction
223 222 220 219 216 213 213 220 226 231 236 244 248 248 251 256 262 269 270 274 276 278 279 281 280 276 274 270 264 262 260 261 259 259 257 255 258 258 257 256 258 260 256 254
222 220 216 213 214 214 213 215 218 227 232 241 245 245 248 252 261 266 271 274 280 275 278 280 281 277 275 268 264 264 264 263 261 262 258 258 259 260 261 260 258 257 253 251
221 217 215 213 214 214 216 213 212 223 232 241 247 244 245 245 254 265 270 274 277 279 278 279 279 275 274 272 265 266 267 266 264 263 257 256 258 259 263 261 259 257 251 250
215 213 216 216 215 216 215 213 216 221 228 239 245 246 252 255 251 258 267 274 277 278 276 278 279 273 269 267 265 265 268 269 267 261 262 258 256 260 261 260 260 258 255 251
215 215 217 218 215 215 213 213 219 222 226 232 235 241 253 256 250 255 267 271 274 275 276 275 276 273 269 265 263 264 266 268 265 262 263 258 257 261 260 256 255 257 253 249
215 219 217 217 215 214 211 213 218 221 226 234 233 233 247 257 256 252 259 267 271 272 274 273 271 272 269 264 262 263 261 263 263 262 261 257 256 257 260 261 256 256 252 248
214 218 218 215 214 213 211 212 216 221 227 234 234 233 243 254 260 263 262 262 265 267 272 273 274 273 270 265 263 262 258 260 262 263 259 255 255 255 257 260 258 256 255 255
217 219 220 219 215 215 214 214 214 220 232 235 234 233 237 249 259 262 263 263 266 267 271 272 271 272 272 268 265 261 258 260 262 263 258 255 255 255 257 258 258 256 255 257
215 220 220 221 218 215 214 213 210 219 226 240 237 234 233 246 254 257 262 263 263 265 269 270 270 269 270 268 264 260 260 262 263 262 259 255 257 258 258 257 258 257 256 256
208 218 217 220 218 215 214 211 207 216 222 234 241 236 235 240 247 256 261 260 264 264 265 265 263 263 266 267 265 261 262 265 264 262 258 256 256 257 257 257 257 256 258 257
204 212 216 220 219 215 212 211 211 216 222 232 241 235 241 243 245 256 261 262 264 264 263 263 262 259 261 265 265 262 262 264 264 259 256 255 257 259 257 256 257 256 257 256
206 208 213 220 222 216 218 216 214 216 220 225 239 248 250 249 244 251 258 262 262 262 262 262 264 264 261 261 261 260 260 261 262 259 256 254 256 257 254 255 255 256 258 257
209 208 209 213 218 217 214 216 215 217 221 224 234 252 254 253 236 248 261 264 265 260 262 262 263 267 266 263 261 259 257 260 260 259 258 257 256 257 257 257 256 257 258 258
212 214 209 213 216 221 218 215 215 216 221 224 230 247 255 254 240 250 262 262 262 263 260 261 263 264 264 263 261 260 258 257 258 257 259 259 257 259 259 257 257 255 257 259
211 214 213 211 213 216 221 218 216 218 221 222 230 241 249 255 254 255 259 262 260 260 262 263 263 262 261 261 260 258 258 257 256 257 261 261 258 260 259 257 255 254 255 257
213 213 215 214 214 218 221 219 217 219 221 222 229 239 240 250 253 254 258 258 260 258 261 263 262 262 260 258 258 258 259 258 256 258 261 262 260 258 258 255 254 255 254 255
217 215 215 215 216 219 222 218 217 219 220 223 231 238 240 243 246 250 253 255 258 259 261 262 262 261 258 255 255 256 257 258 255 257 261 262 257 257 257 254 256 259 259 256
218 217 217 212 214 223 223 218 215 218 223 225 230 235 235 238 243 249 252 254 258 259 259 259 262 260 255 254 256 256 256 255 257 261 262 260 259 257 256 256 256 259 259 258
218 217 217 213 216 221 221 219 217 220 225 226 230 234 236 241 244 250 254 254 254 256 256 258 261 260 256 255 257 257 257 257 259 259 258 259 258 259 257 256 257 256 257 257
217 217 217 216 217 220 221 220 221 220 224 225 230 234 237 238 243 248 249 250 249 252 254 257 259 257 255 256 257 257 257 260 262 262 262 260 261 259 258 256 256 254 256 259
217 216 216 217 219 219 221 220 219 222 225 227 230 232 236 239 243 247 248 251 249 252 255 257 258 255 255 256 256 256 258 263 265 266 265 264 261 259 258 258 257 256 256 259
219 219 220 219 221 220 220 220 222 225 228 230 231 233 237 239 242 245 246 248 249 250 254 256 255 255 256 257 257 257 259 264 265 266 267 265 261 259 259 259 261 260 259 260
217 218 220 220 223 222 220 220 221 223 225 228 231 233 233 234 239 244 243 245 248 250 253 254 252 255 257 257 257 257 260 262 264 266 266 265 265 264 263 263 262 262 263 264
219 219 222 222 222 221 222 221 221 222 224 226 227 227 228 232 236 240 243 245 248 249 250 252 252 254 255 256 259 260 260 262 265 266 266 267 264 264 263 261 261 263 264 265
217 219 222 221 222 222 223 223 222 223 225 228 227 227 229 233 237 240 241 244 247 249 252 254 254 256 258 260 261 262 262 264 263 263 264 265 264 262 261 262 262 264 266 266
219 221 221 221 223 223 223 223 222 220 223 225 226 227 231 235 238 241 242 245 247 250 251 254 256 258 259 261 263 265 265 264 262 263 265 267 267 265 263 264 263 264 266 268
Height
5830 5835 5839 5843 5847 5851 5854 5858 5861 5864 5865 5866 5867 5868 5867 5867 5868 5869 5869 5869 5868 5869 5869 5869 5869 5869 5869 5870 5870 5871 5873 5874 5875 5876 5877 5878 5879 5880 5881 5882 5883 5884 5884 5885
5827 5831 5836 5839 5843 5846 5850 5854 5858 5861 5863 5863 5864 5866 5866 5865 5866 5867 5867 5867 5866 5866 5867 5867 5867 5867 5867 5867 5869 5869 5870 5871 5872 5873 5874 5876 5877 5878 5879 5880 5880 5881 5882 5883
5823 5829 5831 5835 5839 5843 5846 5850 5855 5859 5860 5860 5862 5863 5863 5862 5864 5865 5865 5865 5865 5864 5865 5865 5865 5865 5865 5866 5866 5867 5868 5869 5870 5871 5872 5873 5874 5875 5876 5877 5877 5878 5879 5880
5818 5823 5827 5831 5835 5839 5843 5848 5852 5854 5857 5857 5860 5860 5861 5861 5862 5862 5863 5863 5863 5862 5862 5862 5862 5863 5863 5864 5864 5865 5866 5867 5867 5868 5869 5870 5872 5873 5874 5874 5875 5876 5877 5878
5814 5819 5823 5827 5832 5836 5840 5845 5848 5850 5852 5854 5856 5858 5858 5857 5857 5859 5860 5860 5860 5860 5860 5860 5860 5860 5861 5861 5862 5863 5864 5864 5865 5866 5867 5868 5869 5870 5871 5872 5873 5873 5874 5875
5811 5815 5819 5824 5828 5832 5837 5841 5843 5845 5848 5850 5852 5854 5855 5854 5854 5855 5857 5857 5857 5857 5858 5857 5857 5858 5858 5859 5860 5860 5861 5862 5862 5863 5864 5865 5866 5867 5869 5869 5870 5871 5871 5873
5806 5810 5814 5819 5823 5828 5832 5836 5839 5842 5844 5846 5850 5851 5852 5851 5851 5852 5853 5854 5855 5855 5854 5854 5854 5855 5856 5856 5857 5858 5858 5859 5860 5860 5861 5862 5864 5865 5866 5867 5868 5869 5870 5871
5802 5807 5811 5815 5819 5823 5827 5832 5837 5840 5842 5844 5845 5846 5849 5848 5848 5849 5850 5851 5851 5851 5852 5852 5852 5853 5853 5854 5854 5855 5856 5856 5857 5858 5859 5860 5861 5862 5864 5865 5866 5866 5867 5868
5799 5804 5808 5811 5815 5820 5823 5827 5834 5837 5838 5840 5840 5842 5844 5845 5846 5847 5848 5848 5848 5849 5849 5850 5850 5850 5851 5851 5852 5852 5853 5854 5855 5855 5856 5857 5859 5860 5861 5862 5863 5864 5865 5866
5796 5800 5803 5807 5811 5815 5820 5825 5829 5831 5833 5836 5837 5837 5837 5839 5841 5843 5844 5845 5845 5845 5846 5847 5847 5848 5848 5848 5849 5850 5851 5851 5852 5853 5853 5855 5856 5857 5858 5859 5860 5861 5862 5863
5791 5796 5800 5803 5806 5811 5816 5820 5824 5828 5831 5833 5832 5833 5833 5834 5837 5839 5840 5840 5841 5841 5842 5843 5844 5845 5845 5846 5846 5847 5848 5848 5849 5850 5851 5852 5853 5854 5855 5856 5857 5858 5859 5860
5786 5792 5796 5799 5803 5807 5812 5815 5820 5823 5826 5828 5829 5831 5829 5829 5832 5834 5836 5837 5837 5838 5838 5840 5841 5841 5841 5841 5842 5843 5844 5845 5846 5847 5848 5849 5850 5851 5852 5853 5854 5856 5856 5857
5781 5786 5790 5795 5800 5803 5806 5810 5815 5819 5822 5824 5827 5829 5824 5824 5826 5830 5832 5833 5834 5834 5834 5836 5837 5837 5838 5838 5838 5840 5841 5842 5843 5844 5845 5846 5847 5848 5849 5850 5851 5852 5853 5853
5777 5780 5786 5791 5794 5798 5801 5806 5810 5814 5817 5821 5823 5823 5822 5822 5823 5826 5828 5829 5830 5830 5831 5832 5833 5834 5834 5835 5835 5837 5838 5838 5839 5841 5842 5843 5844 5845 5846 5847 5847 5848 5849 5850
5770 5775 5780 5784 5788 5792 5796 5800 5805 5809 5813 5817 5819 5819 5819 5820 5820 5821 5823 5825 5826 5827 5827 5828 5829 5830 5831 5831 5832 5833 5834 5835 5836 5837 5838 5839 5840 5841 5842 5843 5844 5845 5846 5847
5764 5769 5774 5778 5782 5786 5790 5794 5799 5804 5808 5812 5814 5814 5814 5815 5816 5817 5819 5821 5822 5822 5823 5824 5825 5826 5827 5828 5829 5830 5830 5831 5832 5834 5835 5835 5836 5837 5838 5839 5840 5841 5842 5844
5758 5763 5768 5773 5777 5779 5784 5789 5794 5798 5802 5806 5808 5808 5809 5811 5812 5813 5815 5817 5818 5819 5820 5819 5820 5822 5823 5824 5825 5826 5827 5828 5829 5830 5830 5831 5832 5833 5834 5835 5836 5838 5838 5840
5752 5757 5762 5767 5772 5775 5781 5783 5788 5793 5796 5800 5802 5801 5803 5806 5807 5808 5809 5811 5813 5815 5816 5816 5817 5818 5819 5820 5821 5822 5823 5824 5825 5825 5826 5827 5828 5829 5830 5831 5832 5834 5835 5836
5746 5751 5756 5762 5765 5770 5775 5779 5782 5787 5790 5794 5795 5796 5798 5799 5802 5804 5804 5807 5809 5810 5811 5812 5813 5814 5815 5816 5817 5818 5819 5820 5821 5821 5822 5823 5823 5824 5826 5827 5828 5829 5830 5831
5741 5745 5751 5755 5759 5764 5769 5772 5775 5780 5782 5786 5789 5791 5793 5796 5797 5799 5801 5803 5805 5806 5808 5809 5810 5810 5811 5812 5813 5814 5815 5816 5817 5817 5818 5819 5819 5820 5821 5822 5823 5824 5825 5826
5735 5739 5744 5748 5752 5756 5761 5764 5769 5773 5776 5779 5782 5786 5788 5790 5793 5795 5796 5799 5801 5803 5804 5805 5806 5807 5808 5809 5810 5810 5811 5812 5813 5813 5814 5814 5815 5816 5817 5818 5819 5820 5821 5822
5729 5734 5739 5742 5746 5751 5754 5757 5761 5765 5770 5773 5776 5781 5783 5786 5789 5791 5794 5796 5798 5799 5800 5801 5802 5803 5804 5805 5806 5806 5807 5808 5808 5809 5810 5810 5811 5812 5813 5814 5814 5815 5816 5816
5723 5728 5732 5736 5740 5742 5747 5751 5755 5759 5764 5768 5772 5776 5779 5782 5784 5786 5789 5791 5793 5795 5796 5797 5798 5799 5800 5801 5802 5802 5803 5804 5804 5805 5805 5806 5807 5807 5808 5809 5809 5810 5810 5811
5717 5720 5725 5729 5733 5737 5742 5746 5750 5753 5758 5763 5767 5770 5774 5776 5779 5782 5784 5786 5788 5790 5791 5793 5794 5795 5796 5797 5798 5798 5799 5799 5800 5800 5801 5801 5802 5802 5803 5804 5804 5805 5806 5806
5710 5715 5719 5723 5728 5732 5736 5740 5744 5749 5754 5758 5762 5766 5769 5771 5774 5777 5779 5781 5783 5785 5787 5788 5789 5791 5792 5792 5793 5793 5794 5794 5795 5796 5796 5797 5797 5797 5798 5798 5799 5800 5800 5800
5705 5709 5714 5719 5723 5727 5731 5735 5739 5744 5749 5753 5757 5761 5764 5767 5770 5772 5774 5777 5779 5780 5782 5783 5784 5786 5787 5787 5788 5789 5789 5789 5790 5791 5791 5792 5792 5792 5792 5793 5793 5794 5794 5795